Hourly Weather Roundup
Issued by NWS Central Illinois

Home | Current Version | Previous Version | Text Only | Print | Product List | Glossary On
Versions: 1 2 3 4 5 6 7 8 9 10 11 12 13 14 15 16 17 18 19 20 21 22 23 24 25 26 27 28 29 30 31 32 33 34 35 36 37 38 39 40 41 42 43 44 45 46 47 48 49 50
000
NZUS43 KILX 281810
HWRILX

Area Weather Roundup
National Weather Service Lincoln IL
100 PM CDT FRI JUL 28 2017

NOTE:  "FAIR" indicates few or no clouds below 12,000 feet, with
       no sigificant weather and/or obstructions to visibility.


CITY           SKY/WX    TMP DP  RH WIND       PRES   REMARKS
Bloomington    PTSUNNY   79  67  66 NE17      29.97F HX  81
6HR MIN TEMP:  64; 6HR MAX TEMP:  81;

Champaign      MOSUNNY   80  67  64 NE15G24   29.94S HX  82
6HR MIN TEMP:  67; 6HR MAX TEMP:  80;

Danville       MOSUNNY   78  67  69 N12G18    29.92R HX  80
6HR MIN TEMP:  67; 6HR MAX TEMP:  78;

Decatur        PTSUNNY   80  69  69 NE17G24   29.93F HX  83
6HR MIN TEMP:  66; 6HR MAX TEMP:  81;

Effingham      CLOUDY    76  73  90 N9        29.92F
6HR MIN TEMP:  69; 6HR MAX TEMP:  78;

Flora          CLOUDY    82  74  77 N14       29.89R HX  87
6HR MIN TEMP:  72; 6HR MAX TEMP:  83;

Galesburg      MOSUNNY   78  62  57 N15       30.02F HX  80
6HR MIN TEMP:  62; 6HR MAX TEMP:  78;

Jacksonville   MOSUNNY   80  66  61 N14       29.95F HX  82
6HR MIN TEMP:  64; 6HR MAX TEMP:  81;

Lacon          PTSUNNY   78  67  68 N8G16     29.98F HX  80
6HR MIN TEMP:  63; 6HR MAX TEMP:  78;

Lawrenceville  PTSUNNY   81  75  82 N15       29.86F HX  87
6HR MIN TEMP:  71; 6HR MAX TEMP:  81;

Litchfield     PTSUNNY   79  70  73 N14G21    29.94S HX  82
6HR MIN TEMP:  66; 6HR MAX TEMP:  79; 6HR PCP:  0.06;

$$


CITY           SKY/WX    TMP DP  RH WIND       PRES   REMARKS
Lincoln        MOSUNNY   80  70  71 NE13G18   29.95F HX  84
6HR MIN TEMP:  64; 6HR MAX TEMP:  82;

Macomb         MOSUNNY   79  69  69 NE13      30.02S HX  82
6HR MIN TEMP:  62; 6HR MAX TEMP:  79;

Mattoon        MOSUNNY   79  74  84 NE14      29.90F HX  82
6HR MIN TEMP:  67; 6HR MAX TEMP:  79;

Mt Carmel AP   PTSUNNY   80  72  77 N12       29.86S HX  83
6HR MIN TEMP:  71; 6HR MAX TEMP:  80;

Olney-Noble AP CLOUDY    77  74  92 N9        29.89S
Paris AP       MOSUNNY   79  71  75 NE12G17   29.92S HX  82
6HR MIN TEMP:  67; 6HR MAX TEMP:  79;

Peoria         MOSUNNY   81  65  58 NE10      29.98S HX  83
6HR MIN TEMP:  64; 6HR MAX TEMP:  82;

Pontiac        PTSUNNY   79  69  71 N14       29.98S HX  81
6HR MIN TEMP:  66; 6HR MAX TEMP:  79;

Rantoul        MOSUNNY   82  68  63 NE10      29.94F HX  84
6HR MIN TEMP:  69; 6HR MAX TEMP:  82;

Robinson       CLOUDY    80  73  81 N8        29.88S HX  83
6HR MIN TEMP:  68; 6HR MAX TEMP:  80;

Springfield    MOSUNNY   84  69  60 NE16      29.95F HX  88
6HR MIN TEMP:  66; 6HR MAX TEMP:  84;

Taylorville    PTSUNNY   80  71  74 N15       29.94F HX  83
6HR MIN TEMP:  65; 6HR MAX TEMP:  81;

$$

...REGIONAL REPORTS...


CITY           SKY/WX    TMP DP  RH WIND       PRES   REMARKS
Chicago O`Hare PTSUNNY   77  61  57 NE17      30.01R
Kankakee       SUNNY     79  65  62 N15       29.97S HX  80
Moline         SUNNY     81  61  50 NE10      30.01F HX  82
Mount Sterling MOSUNNY   80  65  60 N13       29.98F HX  82
Mount Vernon   PTSUNNY   81  72  74 N7        29.88S HX  85
Pittsfield     MOSUNNY   82  67  61 NE12      29.98S HX  84
Quincy         SUNNY     82  65  56 NE14      29.98F HX  84
Rockford       MOSUNNY   81  55  40 NE13      30.04R HX  81
$$


CITY           SKY/WX    TMP DP  RH WIND       PRES   REMARKS
Burlington     MOSUNNY   80  62  54 N14       30.01S HX  81
Cedar Rapids   MOSUNNY   81  65  58 E8        30.04F HX  83
Des Moines     PTSUNNY   83  61  47 VRB5      30.04F HX  83
Kirksville     MOSUNNY   83  54  36 E9        30.03S HX  82
Ottumwa        MOSUNNY   84  54  35 E12G17    30.04R HX  83
St Louis       MOSUNNY   85  68  56 N15       29.93F HX  88
$$


CITY           SKY/WX    TMP DP  RH WIND       PRES   REMARKS
Terre Haute    MOSUNNY   80  69  69 NE10G20   29.89S HX  83
Evansville     CLOUDY    78  72  81 N10       29.85S HX  80
Indianapolis   PTSUNNY   81  66  60 N20       29.89S HX  83
Lafayette      PTSUNNY   77  65  66 N10G21    29.93S
Madison        MOSUNNY   76  55  48 NE16      30.06S
Milwaukee      MOSUNNY   72  65  78 NE22      30.05S
$$





USA.gov is the U.S. government's official web portal to all federal, state and local government web resources and services.